Regional Weather Roundup
Issued by NWS Sioux Falls, SD

Home | Current Version | Previous Version | Text Only | Print | Product List | Glossary On
Versions: 1 2 3 4 5 6 7 8 9 10 11 12 13 14 15 16 17 18 19 20 21 22 23 24 25 26 27 28 29 30 31 32 33 34 35 36 37 38 39 40 41 42 43 44 45 46 47 48 49 50
000
ASUS43 KFSD 250102
RWRFSD

WEATHER ROUNDUP FOR SE SOUTH DAKOTA/SW MINNESOTA/NW IOWA
NATIONAL WEATHER SERVICE SIOUX FALLS SD
800 PM CDT SUN JUL 24 2016

NOTE: "FAIR" INDICATES FEW OR NO CLOUDS BELOW 12,000 FEET WITH NO
SIGNIFICANT WEATHER AND OR OBSTRUCTIONS TO VISIBILITY.


SDZ038>040-050-052>070-250200-
SOUTHEAST SOUTH DAKOTA

CITY           SKY/WX    TMP DP  RH WIND       PRES   REMARKS
BROOKINGS      CLEAR     76  65  68 W6        30.03S
CHAMBERLAIN    SUNNY     81  60  47 S3        30.05S
HURON          SUNNY     83  58  42 N3        30.02S
MADISON        FAIR      73  64  73 NW6       30.05S
MITCHELL       CLEAR     81  56  42 CALM      30.04S
SIOUX FALLS    PTCLDY    77  63  61 W3        30.04R
WINNER         FAIR      85  49  28 NE7       30.07S
YANKTON        CLOUDY    79  59  50 N5        30.03R
$$

MNZ071-072-080-081-089-090-097-098-250200-
SOUTHWEST MINNESOTA

CITY           SKY/WX    TMP DP  RH WIND       PRES   REMARKS
FAIRMONT       MOCLDY    75  54  46 W8        30.00R
JACKSON        MOCLDY    75  63  64 W5        30.03S
LUVERNE        CLEAR     75  64  69 NW3       30.03S
MARSHALL       CLEAR     77  65  66 W6        30.00S
MONTEVIDEO     CLEAR     81  63  54 N5        30.00R
REDWOOD FALLS  CLEAR     78  65  63 W6        29.98R
TRACY          CLEAR     77  65  68 W3        30.01S
WINDOM         PTCLDY    77  63  61 NW6       30.02R
WORTHINGTON    PTCLDY    75  66  73 NW6       30.04S
$$

IAZ001>003-012>014-020>022-031-032-NEZ013-014-SDZ071-250200-
NORTHWEST IOWA

CITY           SKY/WX    TMP DP  RH WIND       PRES   REMARKS
CHEROKEE       CLOUDY    74  66  76 N3        30.03S
ESTHERVILLE    CLOUDY    74  67  78 W7        30.01S
LE MARS        MOCLDY    77  66  69 NW7       30.04R
SHELDON        MOCLDY    73  66  78 NW5       30.03R
SIOUX CITY     CLOUDY    80  61  52 N9        30.02S
SPENCER        CLOUDY    75  65  70 W6        30.03S
STORM LAKE     CLOUDY    73  66  78 N5        30.04S
$$

ABBREVIATIONS USED IN REMARKS
   TC - TEMPERATURE IN CELSIUS
  WCI - WIND CHILL INDEX
   HX - HEAT INDEX
  VSB - VISIBILITY





USA.gov is the U.S. government's official web portal to all federal, state and local government web resources and services.